Location: Newark
(48.8833°N, 0.9236°W)
Time: 23:41:52
(UTC+00:00)

Tiros 1 - Visible Passes

Search period start: 13 November 2019 00:00
Search period end: 23 November 2019 00:00
Orbit: 630 x 664 km, 48.4° (Epoch: 12 November)

Date Brightness Start Highest point End Pass type
(mag) Time Alt. Az. Time Alt. Az. Time Alt. Az.
13 Nov 7.2 17:48:25 10° WSW 17:53:01 66° SSE 17:55:45 24° E visible
13 Nov 8.4 19:30:30 10° W 19:33:25 38° W 19:33:25 38° W visible
14 Nov 7.1 18:14:25 10° W 18:19:04 82° S 18:20:39 42° E visible
14 Nov 9.4 19:56:36 10° W 19:58:18 22° W 19:58:18 22° W visible
15 Nov 7.4 16:58:26 10° WSW 17:03:01 64° SSE 17:07:38 10° E visible
15 Nov 6.9 18:40:29 10° W 18:45:09 86° S 18:45:33 75° ESE visible
15 Nov 10.1 20:22:41 10° W 20:23:12 13° W 20:23:12 13° W visible
16 Nov 7.1 17:24:24 10° WSW 17:29:02 81° S 17:32:48 16° E visible
16 Nov 7.6 19:06:34 10° W 19:10:27 59° WSW 19:10:27 59° WSW visible
17 Nov 7.1 17:50:28 10° W 17:55:08 86° S 17:57:44 26° E visible
17 Nov 8.7 19:32:40 10° W 19:35:24 33° W 19:35:24 33° W visible
18 Nov 7.1 18:16:33 10° W 18:21:12 77° SSW 18:22:42 43° ESE visible
18 Nov 9.6 19:58:51 10° W 20:00:23 19° W 20:00:23 19° W visible
19 Nov 7.2 17:00:27 10° W 17:05:06 86° S 17:09:47 10° E visible
19 Nov 7.4 18:42:38 10° W 18:47:13 57° SSW 18:47:45 53° S visible
19 Nov 10.3 20:25:24 10° W 20:25:26 10° W 20:25:26 10° W visible
20 Nov 7.2 17:26:32 10° W 17:31:10 78° SSW 17:35:12 14° ESE visible
20 Nov 8.3 19:08:49 10° W 19:12:52 36° SW 19:12:52 36° SW visible
21 Nov 7.5 17:52:37 10° W 17:57:11 59° SSW 18:00:24 19° SE visible
21 Nov 9.3 19:35:18 10° W 19:38:06 20° SW 19:38:06 20° SW visible
22 Nov 8.3 18:18:47 10° W 18:23:04 38° SSW 18:25:46 20° SSE visible
22 Nov 10.1 20:03:17 10° WSW 20:03:28 10° WSW 20:03:28 10° WSW visible
